Location: Leipzig
(51.3392°N, 12.3528°E)
Time: 19:31:32
(UTC+02:00)

ISS - Visible Passes

Search period start: 20 May 2018 00:00
Search period end: 30 May 2018 00:00
Orbit: 402 x 407 km, 51.6° (Epoch: 21 May)

Date Brightness Start Highest point End Pass type
(mag) Time Alt. Az. Time Alt. Az. Time Alt. Az.
20 May -2.3 00:06:23 24° E 00:06:23 24° E 00:07:55 10° E visible
20 May -3.9 01:38:56 19° W 01:41:09 84° N 01:44:26 10° E visible
20 May -3.9 03:14:24 10° W 03:17:40 69° SSW 03:20:55 10° ESE visible
20 May -3.2 23:09:41 10° SW 23:12:41 34° SSE 23:15:41 10° E visible
21 May -4.0 00:45:42 10° W 00:48:59 88° S 00:52:16 10° E visible
21 May -4.0 02:22:13 10° W 02:25:30 85° S 02:28:47 10° ESE visible
21 May -3.0 03:58:50 10° W 04:01:46 31° SSW 04:04:41 10° SSE visible
21 May -2.7 22:18:00 10° SSW 22:20:39 23° SE 22:23:18 10° E visible
21 May -4.0 23:53:32 10° WSW 23:56:48 73° SSE 00:00:05 10° E visible
22 May -3.9 01:30:02 10° W 01:33:19 85° N 01:36:36 10° E visible
22 May -3.6 03:06:34 10° W 03:09:42 44° SSW 03:12:50 10° SE visible
22 May -3.8 23:01:27 10° WSW 23:04:39 55° SSE 23:07:52 10° E visible
23 May -3.8 00:37:49 10° W 00:41:06 83° N 00:44:23 10° E visible
23 May -3.9 02:14:20 10° W 02:17:35 62° SSW 02:20:49 10° ESE visible
23 May -2.3 03:51:20 10° W 03:53:37 18° SW 03:55:54 10° S visible
23 May -3.4 22:09:28 10° SW 22:12:32 39° SSE 22:15:37 10° E visible
23 May -3.9 23:45:36 10° W 23:48:53 88° NNW 23:52:10 10° E visible
24 May -4.0 01:22:07 10° W 01:25:24 80° SSW 01:27:54 16° ESE visible
24 May -2.3 02:58:48 10° W 03:00:17 20° WSW 03:00:17 20° WSW visible
24 May -3.9 22:53:23 10° WSW 22:56:40 80° SSE 22:59:57 10° E visible
25 May -3.9 00:29:54 10° W 00:33:11 88° N 00:35:40 16° E visible
25 May -2.5 02:06:27 10° W 02:08:15 26° WSW 02:08:15 26° WSW visible
25 May -3.8 22:01:14 10° WSW 22:04:28 62° SSE 22:07:43 10° E visible
25 May -3.8 23:37:39 10° W 23:40:56 83° N 23:44:13 10° E visible
26 May -3.7 01:14:10 10° W 01:17:10 54° SW 01:17:10 54° SW visible
26 May -3.8 22:45:24 10° W 22:48:41 85° N 22:51:58 10° E visible
27 May -4.0 00:21:54 10° W 00:25:11 74° SSW 00:26:19 37° ESE visible
27 May -1.3 01:58:40 10° W 01:58:56 11° W 01:58:56 11° W visible
27 May -3.9 21:53:08 10° WSW 21:56:25 85° SSE 21:59:42 10° E visible
27 May -3.9 23:29:38 10° W 23:32:56 89° S 23:35:33 15° E visible
28 May -2.5 01:06:13 10° W 01:08:11 27° WSW 01:08:11 27° WSW visible
28 May -3.8 22:37:22 10° W 22:40:39 84° N 22:43:56 10° E visible
29 May -3.6 00:13:53 10° W 00:17:04 49° SSW 00:17:28 46° S visible
29 May -3.9 23:21:35 10° W 23:24:51 68° SSW 23:26:49 22° ESE visible
